Temp
9 9 8 8 8 7 6 6 7 8 8 8 7 7 6 4 4 4 4 4 4 4
9 8 8 7 7 6 7 7 7 7 7 6 5 4 3 3 4 4 4 4 3 3
8 8 7 6 6 6 6 7 7 6 5 4 2 2 2 2 3 3 4 3 2 2
6 6 5 5 6 6 6 5 4 3 1 0 1 1 2 1 1 2 2 2 2 1
5 5 5 5 6 5 4 3 2 1 0 -0 -0 -0 -0 0 0 -0 -0 0 1 1
5 5 5 5 4 4 3 3 0 -0 -0 0 0 0 -0 -1 -1 -2 -2 -2 -1 -1
5 4 5 4 3 3 2 2 1 -1 -1 -1 -1 -2 -2 -2 -2 -2 -2 -2 -2 -2
4 4 4 3 3 3 2 -1 -1 -1 -1 -2 -2 -2 -2 -3 -3 -3 -2 -1 -1 -1
4 3 3 3 2 2 0 -1 -1 -2 -2 -2 -2 -3 -3 -2 -3 -2 -2 -1 -1 -1
3 3 3 2 1 0 -1 -2 -3 -3 -3 -3 -3 -3 -2 -2 -3 -2 -2 -1 -0 1
3 2 2 1 -0 -1 -3 -3 -3 -3 -3 -4 -3 -3 -3 -3 -3 -3 -2 -1 0 1
2 1 1 -1 -2 -3 -4 -4 -4 -4 -4 -3 -4 -4 -3 -3 -3 -3 -2 -1 -1 1
0 -0 -1 -2 -3 -3 -4 -4 -4 -4 -3 -4 -3 -3 -3 -3 -3 -3 -2 -1 -1 -0
-1 -1 -2 -3 -4 -4 -4 -3 -3 -3 -4 -4 -3 -3 -3 -3 -4 -3 -2 -2 -2 -1
Height
1475 1473 1470 1467 1464 1461 1456 1453 1449 1445 1443 1439 1436 1433 1431 1430 1429 1429 1427 1426 1428 1428
1469 1466 1462 1460 1457 1452 1448 1443 1437 1432 1426 1423 1422 1420 1420 1418 1416 1415 1414 1413 1412 1414
1460 1457 1455 1451 1447 1442 1437 1432 1426 1421 1416 1412 1410 1409 1409 1406 1404 1402 1400 1399 1399 1398
1455 1451 1447 1442 1438 1432 1425 1420 1414 1409 1405 1402 1399 1398 1396 1394 1391 1389 1386 1385 1385 1381
1447 1444 1439 1433 1428 1421 1415 1409 1403 1399 1396 1393 1390 1387 1384 1380 1377 1374 1370 1369 1368 1365
1440 1436 1429 1423 1418 1412 1405 1399 1394 1391 1387 1383 1379 1375 1370 1366 1363 1359 1356 1353 1350 1349
1433 1427 1421 1415 1409 1402 1397 1391 1385 1381 1377 1372 1367 1363 1359 1354 1350 1346 1342 1338 1334 1333
1425 1419 1413 1407 1401 1395 1389 1382 1378 1372 1368 1363 1359 1354 1349 1344 1339 1334 1328 1322 1317 1315
1417 1412 1406 1400 1394 1388 1382 1378 1372 1366 1363 1358 1352 1347 1341 1336 1331 1325 1318 1310 1305 1301
1410 1404 1399 1393 1389 1382 1376 1371 1369 1364 1358 1353 1347 1339 1335 1330 1324 1317 1309 1302 1295 1288
1402 1397 1392 1386 1381 1378 1374 1370 1366 1362 1356 1348 1342 1335 1331 1325 1319 1313 1306 1300 1293 1284
1397 1391 1386 1381 1377 1374 1373 1368 1364 1359 1352 1347 1340 1334 1329 1323 1316 1311 1305 1298 1290 1283
1394 1388 1383 1379 1376 1374 1371 1369 1364 1357 1351 1346 1340 1335 1329 1323 1317 1312 1307 1301 1294 1290
1389 1385 1381 1379 1375 1373 1369 1367 1360 1356 1351 1347 1341 1336 1331 1325 1321 1317 1313 1308 1304 1301
Wind_Speed
19 23 25 27 31 34 36 39 42 43 43 42 38 39 41 37 39 40 43 44 44 43
22 25 27 30 33 37 40 43 45 45 44 42 40 36 36 40 45 47 48 47 48 46
26 27 30 34 38 39 42 44 45 45 43 41 37 36 38 40 43 46 49 51 49 48
26 28 33 37 39 42 45 43 42 40 37 35 35 36 37 42 44 47 52 54 53 52
28 33 35 38 40 41 40 38 38 37 37 38 40 43 44 47 48 47 46 46 45 49
32 36 37 39 39 38 39 39 38 36 40 42 43 43 43 42 44 49 50 50 49 50
34 36 38 38 37 38 38 40 39 37 37 39 40 40 42 43 42 42 43 45 45 47
35 35 36 36 37 38 38 35 35 36 37 36 35 36 35 34 35 36 37 38 40 42
34 34 35 36 38 37 35 32 33 32 32 31 30 29 28 28 29 29 33 38 37 40
33 34 35 36 36 34 31 30 28 27 26 26 24 24 25 22 25 28 34 34 31 30
32 32 33 34 32 30 26 24 23 23 22 22 21 20 20 20 22 27 29 23 28 31
29 30 30 30 27 23 22 19 19 19 20 19 20 21 19 21 22 23 25 27 23 16
26 26 27 25 22 18 15 16 18 18 18 19 22 23 22 23 24 21 18 15 8 5
23 24 23 21 16 13 12 14 16 17 18 19 21 24 24 22 20 15 15 12 13 12
Wind_Direction
314 309 308 308 306 304 307 310 310 307 303 298 293 283 277 276 272 275 280 280 278 275
314 313 313 312 311 313 311 309 308 306 301 295 290 284 272 269 271 275 278 279 282 275
319 316 314 315 316 314 312 311 308 305 299 293 289 283 281 279 277 279 280 280 277 274
319 321 320 318 318 316 313 312 309 310 308 302 297 290 285 286 285 283 280 278 275 271
325 323 320 319 317 317 315 313 313 310 306 301 296 292 291 290 289 284 280 273 266 267
323 321 322 319 319 319 317 313 310 301 300 301 300 299 295 291 287 286 283 280 277 272
322 322 321 322 323 322 319 314 311 310 308 304 301 296 294 292 291 288 284 280 275 269
323 322 322 325 327 323 321 323 322 314 308 306 304 301 298 294 294 293 293 291 285 272
322 323 326 327 327 326 322 320 317 317 315 311 305 303 300 299 303 305 310 305 297 285
324 325 327 329 328 328 324 322 323 322 317 315 315 315 312 312 315 323 320 313 310 311
326 327 330 330 332 331 328 328 329 329 331 337 335 335 335 330 333 327 318 307 318 306
327 330 332 334 335 332 330 335 336 341 349 350 358 354 351 354 352 343 327 323 317 290
332 335 335 334 335 333 336 343 349 355 359 1 6 6 3 1 359 350 346 353 352 159
337 336 336 335 334 337 349 357 5 10 10 9 11 14 12 11 6 8 24 39 61 121